EW9824 Weather Reports


Display with metric or nautical units.
time (UTC)temp
F
wind
direction
speed
MPH
gust
MPH
rain 1hr
in
rain 24hr
in
rain mn
in
humidity
%
barometer
mb
20260906080033 51 157 1.0 3.0 0.01 0.06 0.01 97 1019.3
20260906074528 51 135 0.0 3.0 0.01 0.07 0.01 97 1019.2
20260906071541 50 167 1.0 3.0 0.00 0.06 0.00 97 1019.4
20260906063027 50 152 1.0 4.0 0.00 0.07 0.06 96 1019.7
20260906061530 50 159 2.0 5.0 0.00 0.07 0.06 96 1019.7
20260906060106 50 174 1.0 4.0 0.00 0.07 0.06 96 1019.8
20260906054531 51 155 2.0 4.0 0.01 0.07 0.06 96 1019.8
20260906053103 51 139 3.0 5.0 0.01 0.07 0.06 96 1019.9
20260906051533 51 141 2.0 4.0 0.01 0.07 0.06 95 1020.0
20260906044533 51 157 1.0 3.0 0.00 0.06 0.05 95 1020.1
20260906043030 52 168 1.0 3.0 0.00 0.06 0.05 95 1020.2
20260906041531 52 175 1.0 4.0 0.00 0.06 0.05 94 1020.2
20260906034531 53 169 1.0 4.0 0.00 0.06 0.05 94 1020.0
20260906033030 54 150 2.0 5.0 0.00 0.06 0.05 94 1019.8
20260906031603 54 176 3.0 7.0 0.01 0.06 0.05 92 1019.7
20260906030030 54 165 2.0 4.0 0.01 0.06 0.05 90 1019.6
20260906024532 55 157 1.0 3.0 0.01 0.06 0.05 89 1019.6
20260906021532 57 165 1.0 2.0 0.00 0.05 0.04 86 1019.6
20260906020029 58 180 0.0 2.0 0.00 0.05 0.04 84 1019.7
20260906014529 59 181 0.0 2.0 0.01 0.05 0.04 81 1019.6
20260906013030 59 202 0.0 2.0 0.01 0.05 0.04 79 1019.6
20260906011528 60 225 2.0 4.0 0.01 0.05 0.04 80 1019.8
20260906003032 60 275 3.0 6.0 0.01 0.04 0.03 84 1020.1
20260906001530 60 260 3.0 6.0 0.01 0.04 0.03 87 1020.2
20260906000030 59 77 2.0 8.0 0.01 0.04 0.03 87 1020.1
20260905234529 59 94 4.0 11.0 0.01 0.04 0.02 85 1020.2
20260905233028 60 149 2.0 5.0 0.00 0.03 0.02 81 1020.4
20260905231607 61 180 1.0 4.0 0.00 0.03 0.02 75 1020.2
20260905230031 63 323 0.0 4.0 0.00 0.03 0.02 75 1020.2
20260905224530 61 248 2.0 8.0 0.00 0.03 0.02 79 1020.2
20260905223104 61 197 2.0 6.0 0.00 0.03 0.02 72 1020.2
20260905221531 64 211 3.0 6.0 0.00 0.03 0.02 66 1020.0
20260905220032 66 308 1.0 5.0 0.00 0.03 0.02 64 1019.9
20260905214530 65 344 3.0 7.0 0.00 0.03 0.02 65 1020.0
20260905213032 63 22 1.0 4.0 0.00 0.03 0.02 68 1020.1
20260905211528 64 196 1.0 4.0 0.00 0.03 0.02 70 1020.3
20260905210028 62 154 0.0 3.0 0.00 0.03 0.02 71 1020.4
20260905204531 61 172 0.0 1.0 0.00 0.03 0.02 72 1020.5
20260905203030 61 167 0.0 3.0 0.00 0.03 0.02 72 1020.5
20260905201603 61 267 0.0 3.0 0.00 0.03 0.02 74 1020.6
20260905200029 60 270 1.0 4.0 0.00 0.03 0.02 76 1020.7
20260905194613 59 321 1.0 4.0 0.00 0.03 0.02 74 1020.7
20260905193031 59 331 2.0 6.0 0.00 0.03 0.02 75 1020.7
20260905190033 59 300 1.0 4.0 0.00 0.03 0.02 78 1021.0
20260905184530 59 272 3.0 6.0 0.00 0.03 0.02 81 1021.0
20260905183034 58 294 2.0 6.0 0.00 0.03 0.02 81 1021.0
20260905181531 58 284 3.0 7.0 0.00 0.03 0.02 82 1021.1
20260905174530 56 294 0.0 3.0 0.00 0.03 0.02 92 1021.2
20260905171530 55 292 0.0 2.0 0.00 0.03 0.02 94 1021.1
20260905170030 54 271 0.0 2.0 0.00 0.03 0.02 96 1021.1
20260905164528 53 318 0.0 2.0 0.00 0.03 0.02 97 1021.1
20260905163030 52 320 1.0 3.0 0.00 0.03 0.02 98 1021.1
20260905161528 52 270 0.0 2.0 0.00 0.03 0.02 98 1021.0
20260905160031 52 270 0.0 0.0 0.00 0.03 0.02 98 1021.0
20260905154532 51 270 0.0 1.0 0.00 0.03 0.02 98 1020.9
20260905153030 50 209 0.0 3.0 0.00 0.03 0.02 98 1020.9
20260905151530 49 170 0.0 1.0 0.00 0.03 0.02 98 1020.8
20260905144604 47 172 0.0 2.0 0.00 0.03 0.02 98 1020.6
20260905143030 47 179 0.0 2.0 0.00 0.03 0.02 98 1020.6
20260905141532 47 161 1.0 3.0 0.00 0.03 0.02 98 1020.5
20260905140028 46 161 1.0 3.0 0.00 0.03 0.02 98 1020.4
20260905134530 45 144 2.0 4.0 0.00 0.03 0.02 98 1020.3
20260905133032 46 157 1.0 2.0 0.00 0.03 0.02 98 1020.1
20260905131530 46 160 2.0 3.0 0.00 0.03 0.02 97 1020.0
20260905130031 47 183 1.0 3.0 0.00 0.03 0.02 97 1020.1
20260905121608 48 195 0.0 3.0 0.00 0.05 0.02 97 1020.1
20260905120104 48 173 1.0 3.0 0.00 0.05 0.02 97 1020.2
20260905114528 48 138 2.0 4.0 0.00 0.05 0.02 97 1020.0
20260905113030 49 217 0.0 1.0 0.00 0.05 0.02 97 1019.9
20260905111532 49 157 0.0 2.0 0.00 0.05 0.02 97 1019.9
20260905110031 49 157 1.0 3.0 0.00 0.05 0.02 97 1020.0
20260905104529 49 168 1.0 2.0 0.00 0.05 0.02 97 1020.0
20260905103032 49 223 0.0 2.0 0.00 0.05 0.02 97 1019.9
20260905101608 50 225 0.0 0.0 0.00 0.05 0.02 97 1020.0
20260905100031 50 225 0.0 0.0 0.01 0.05 0.02 97 1019.9
20260905094644 50 192 1.0 3.0 0.01 0.05 0.02 97 1020.0
20260905093104 50 127 1.0 3.0 0.01 0.05 0.02 97 1020.0
20260905084531 50 135 0.0 1.0 0.01 0.04 0.01 96 1019.8
20260905083035 50 140 0.0 3.0 0.01 0.04 0.01 96 1019.8